[[{"header":{"parameterUnit":"m.s-1","parameterCategory":1,"la1":30.2991,"la2":30.254,"lo1":-89.0895,"lo2":-89.0444,"dy":0.0017,"dx":0.0017,"nx":28,"ny":28,"refTime":"2023-11-20T09:00:00:Z","depth":0,"parameterNumber":2,"parameterNumberName":"U-component_of_WINDS"},"data":[0,0,0,0,0,0,0,0,0,0,0,0,0,0,0,0,0,0,0,0,0,0,0,0,0,0,0,0,0,0,0,0,0,0,0,0,0,0,0,0,0,0,0,0,0,0,0,0,0,0,0,0,0,0,0,0,0,0,2.0252,2.0251,0,2.0204,2.0204,2.0203,2.0154,2.0154,2.0153,2.0152,2.0103,2.0102,2.0102,0,0,0,0,0,0,0,0,0,0,0,0,0,2.0302,2.0301,2.0252,2.0251,2.025,2.0204,2.0204,2.0203,2.0154,2.0154,2.0153,2.0152,2.0103,2.0103,2.0102,0,0,0,0,0,0,0,0,0,0,0,0,0,2.027,2.0301,2.0252,2.0221,2.0217,2.0204,2.0204,2.0203,2.0155,2.0154,2.0153,2.0152,2.0104,2.0103,2.0102,2.0115,0,0,2.0098,2.0098,0,0,0,0,0,0,0,0,2.0272,2.0268,2.0226,2.0223,2.0219,2.0184,2.0203,2.0173,2.0155,2.0178,2.0152,2.0151,2.0131,2.0128,2.0121,2.0113,2.0111,2.0098,2.0098,2.0097,2.0097,0,0,0,0,0,0,0,2.0274,2.027,2.0233,2.0225,2.0221,2.021,2.0204,2.0198,2.0161,2.0176,2.0173,2.0168,2.0129,2.0122,2.0119,2.011,2.0098,2.0097,2.0097,2.0096,2.0116,2.0117,0,0,0,0,0,0,2.0281,2.0272,2.0234,2.0231,2.0244,2.021,2.0203,2.0196,2.0161,2.0154,2.0169,2.0166,2.0124,2.0121,2.0117,2.0133,2.0097,2.0096,2.0096,2.0114,2.0116,2.0117,0,0,0,0,0,0,2.0282,2.0278,2.0236,2.0251,2.0245,2.021,2.0202,2.0196,2.0189,2.0155,2.0148,2.0168,2.0123,2.0119,2.0117,2.0131,2.0096,2.0095,2.0113,2.0115,2.0116,2.0164,0,0,0,0,0,0,2.0284,2.0279,2.0283,2.0251,2.0244,2.0236,2.0203,2.0196,2.0187,2.0183,2.0153,2.0147,2.0122,2.0119,2.0116,2.0129,2.0094,2.0112,2.0114,2.0116,2.0161,2.0167,2.0173,0,0,0,0,0,2.0286,2.0297,2.0283,2.0279,2.0248,2.0237,2.0233,2.0204,2.0189,2.0193,2.0172,2.0148,2.013,2.0119,2.0116,2.0128,2.0111,2.0113,2.0116,2.0159,2.0166,2.0173,0,0,0,0,0,0,2.0329,2.0292,2.0276,2.0277,2.0261,2.0229,2.0233,2.0213,2.02,2.0196,2.0161,2.0155,2.0158,2.0143,2.0131,2.0142,2.0117,2.0119,2.0151,2.0158,2.0164,2.0167,2.0093,0,0,0,0,0,2.0339,2.0333,2.0301,2.0305,2.0298,2.0267,2.0261,2.0241,2.0222,2.0215,2.0193,2.0176,2.0168,2.0162,2.0151,2.016,2.0154,2.0167,2.0173,2.0177,2.0179,2.0186,2.0192,2.0125,2.0125,2.0125,0,0,2.0359,2.0338,2.0336,2.0313,2.0298,2.0294,2.0261,2.0256,2.0253,2.0214,2.0212,2.0196,2.0175,2.018,2.018,2.0167,2.0197,2.0181,2.0185,2.0184,2.0189,2.0196,2.0201,2.0127,2.0127,2.0127,0,0,2.0393,2.0376,2.0379,2.0365,2.0344,2.0324,2.0325,2.0297,2.0286,2.0283,2.0255,2.0251,2.0235,2.0223,2.0214,2.0249,2.0227,2.0247,2.0276,2.0283,2.0288,2.0293,2.0307,2.0313,2.0249,2.0249,2.0249,0,2.042,2.0411,2.0383,2.0381,2.0373,2.034,2.0344,2.0332,2.0308,2.0304,2.029,2.0273,2.0256,2.0258,2.0268,2.0261,2.0263,2.0249,2.029,2.0294,2.0298,2.0312,2.0317,2.0252,2.0252,2.0251,2.0251,0,2.0447,2.0442,2.0447,2.0427,2.042,2.0421,2.0394,2.0391,2.0373,2.0356,2.0356,2.0335,2.0322,2.0321,2.0302,2.0322,2.0315,2.0296,2.0271,2.0308,2.032,2.0325,2.0256,2.0255,2.0254,2.0253,0,0,2.0503,2.0471,2.0473,2.0465,2.0441,2.0437,2.0439,2.0427,2.0426,2.0411,2.0413,2.0403,2.0387,2.0377,2.0358,2.0364,2.0397,2.0344,2.0343,2.0356,2.042,2.0435,2.0441,2.0383,2.0383,2.0384,2.0423,0,2.0534,2.0534,2.051,2.0517,2.0514,2.0485,2.0487,2.0473,2.0458,2.0454,2.0437,2.0432,2.0409,2.0404,2.0409,2.0391,2.0409,2.0388,2.0385,2.0385,2.0391,2.0447,2.0462,2.0499,2.0427,2.0428,2.0428,0,2.0568,2.0558,2.0566,2.0545,2.0543,2.0545,2.0534,2.053,2.0516,2.0505,2.0497,2.0476,2.0478,2.0455,2.0459,2.0445,2.0443,2.0435,2.0436,2.0434,2.0409,2.0448,2.051,2.0516,2.0435,2.0435,2.0434,0,2.0611,2.0599,2.0603,2.0597,2.0573,2.0576,2.0566,2.055,2.0546,2.0537,2.0535,2.0526,2.0522,2.0516,2.0495,2.0479,2.0502,2.0476,2.0494,2.0495,2.0499,2.0499,2.0562,2.0497,2.0497,2.0497,2.0497,0,2.0647,2.0653,2.0623,2.0625,2.0632,2.0606,2.0614,2.0602,2.0589,2.059,2.0564,2.0566,2.0537,2.0535,2.0519,2.0526,2.0523,2.0516,2.0511,2.0518,2.0519,2.0516,2.0513,2.0498,2.0498,2.0498,2.0498,0,2.0695,2.0674,2.0677,2.0656,2.0651,2.0657,2.0639,2.0641,2.0627,2.0628,2.0627,2.0604,2.0602,2.058,2.0572,2.0561,2.0576,2.0566,2.0581,2.0578,2.0597,2.0596,2.066,2.0668,2.0598,2.0599,2.0599,0,2.0719,2.0723,2.0704,2.0703,2.0695,2.0693,2.069,2.0667,2.0664,2.0651,2.0656,2.0652,2.0647,2.0645,2.0628,2.0624,2.0614,2.0637,2.0613,2.0621,2.0616,2.0616,2.0618,2.0642,2.0643,2.0644,2.0644,0,2.0765,2.0756,2.0752,2.0747,2.0744,2.0737,2.073,2.0731,2.0705,2.0704,2.0703,2.07,2.0694,2.0691,2.0684,2.0675,2.0657,2.0652,2.0657,2.0663,2.0673,2.067,2.0595,2.065,2.065,2.0649,2.0649,2.0649,2.0803,2.0807,2.0795,2.0793,2.0785,2.078,2.0782,2.0769,2.0767,2.0761,2.0748,2.0749,2.0739,2.0728,2.0721,2.0723,2.0711,2.0716,2.0718,2.072,2.0724,2.0673,2.0721,2.0721,2.0721,2.0721,2.072,0,2.0849,2.0841,2.0839,2.0831,2.083,2.0814,2.0806,2.0806,2.0808,2.08,2.0797,2.0797,2.0796,2.0781,2.0778,2.0783,2.0774,2.0783,2.0782,2.0781,2.0734,2.0731,2.079,2.079,2.079,2.079,2.079,2.079,2.0873,2.088,2.0871,2.0875,2.0867,2.0868,2.0866,2.0861,2.0855,2.0857,2.0856,2.0847,2.0837,2.0834,2.0833,2.0829,2.0829,2.0841,2.0834,2.0791,2.0784,2.0777,2.0775,2.0841,2.0841,2.0881,2.0881,2.0882]},{"header":{"parameterUnit":"m.s-1","parameterCategory":1,"la1":30.2991,"la2":30.254,"lo1":-89.0895,"lo2":-89.0444,"dy":0.0017,"dx":0.0017,"nx":28,"ny":28,"refTime":"2023-11-20T09:00:00:Z","depth":0,"parameterNumber":3,"parameterNumberName":"V-component_of_WINDS"},"data":[0,0,0,0,0,0,0,0,0,0,0,0,0,0,0,0,0,0,0,0,0,0,0,0,0,0,0,0,0,0,0,0,0,0,0,0,0,0,0,0,0,0,0,0,0,0,0,0,0,0,0,0,0,0,0,0,0,0,-4.2279,-4.228,0,-4.2409,-4.2411,-4.2412,-4.2434,-4.2432,-4.2431,-4.243,-4.256,-4.2564,-4.2569,0,0,0,0,0,0,0,0,0,0,0,0,0,-4.2049,-4.2053,-4.2279,-4.228,-4.2282,-4.2409,-4.2411,-4.2413,-4.2434,-4.2432,-4.2431,-4.243,-4.2559,-4.2564,-4.2569,0,0,0,0,0,0,0,0,0,0,0,0,0,-4.2161,-4.2054,-4.2279,-4.2308,-4.2312,-4.2409,-4.2411,-4.2413,-4.2434,-4.2432,-4.2431,-4.2429,-4.2557,-4.2563,-4.257,-4.2645,0,0,-4.2591,-4.2594,0,0,0,0,0,0,0,0,-4.2155,-4.2169,-4.2302,-4.2306,-4.2311,-4.2404,-4.2377,-4.2491,-4.2435,-4.2388,-4.243,-4.2428,-4.2509,-4.252,-4.2548,-4.2651,-4.2657,-4.2591,-4.2595,-4.2598,-4.26,0,0,0,0,0,0,0,-4.2147,-4.2164,-4.233,-4.2304,-4.2309,-4.2315,-4.2329,-4.2399,-4.2456,-4.2392,-4.2393,-4.2409,-4.2511,-4.2541,-4.2551,-4.2659,-4.2591,-4.2597,-4.2601,-4.2604,-4.2835,-4.2837,0,0,0,0,0,0,-4.2134,-4.2157,-4.2326,-4.2334,-4.2227,-4.2321,-4.2336,-4.2375,-4.2455,-4.2466,-4.241,-4.2409,-4.253,-4.2543,-4.2556,-4.2652,-4.2598,-4.2605,-4.2608,-4.2833,-4.2836,-4.2838,0,0,0,0,0,0,-4.2129,-4.2149,-4.2321,-4.2246,-4.2269,-4.2326,-4.237,-4.2379,-4.2409,-4.2469,-4.248,-4.243,-4.253,-4.2546,-4.2624,-4.2656,-4.2608,-4.2614,-4.2831,-4.2834,-4.2837,-4.2843,0,0,0,0,0,0,-4.2122,-4.2147,-4.2175,-4.2247,-4.2273,-4.2387,-4.2372,-4.2383,-4.2421,-4.2421,-4.2491,-4.2501,-4.253,-4.2614,-4.2631,-4.2665,-4.2619,-4.2828,-4.2832,-4.2836,-4.284,-4.2846,-4.2851,0,0,0,0,0,-4.2114,-4.217,-4.2177,-4.2197,-4.231,-4.2389,-4.2404,-4.2436,-4.2423,-4.2453,-4.2493,-4.2499,-4.265,-4.2622,-4.2641,-4.2677,-4.2826,-4.2831,-4.2836,-4.2838,-4.2845,-4.2851,0,0,0,0,0,0,-4.2098,-4.218,-4.2188,-4.2269,-4.2322,-4.2392,-4.2431,-4.2442,-4.2499,-4.2497,-4.2534,-4.255,-4.2627,-4.266,-4.2627,-4.2757,-4.2737,-4.2746,-4.2732,-4.2739,-4.2745,-4.2735,-4.2625,0,0,0,0,0,-4.2105,-4.2163,-4.223,-4.2295,-4.2322,-4.2372,-4.2408,-4.2429,-4.2485,-4.2507,-4.2552,-4.2606,-4.2666,-4.2704,-4.2763,-4.2845,-4.2862,-4.288,-4.2886,-4.289,-4.2897,-4.2947,-4.2956,-4.2854,-4.2854,-4.2854,0,0,-4.2117,-4.2169,-4.2203,-4.2294,-4.2337,-4.2397,-4.239,-4.2453,-4.2498,-4.2516,-4.2594,-4.2629,-4.2692,-4.2773,-4.2811,-4.2803,-4.2929,-4.2896,-4.2899,-4.2904,-4.2952,-4.2962,-4.2971,-4.2857,-4.2856,-4.2856,0,0,-4.2172,-4.2216,-4.2277,-4.2323,-4.239,-4.2424,-4.2439,-4.2509,-4.2534,-4.2613,-4.2629,-4.2683,-4.2784,-4.283,-4.2866,-4.2944,-4.2952,-4.2962,-4.2989,-4.3037,-4.3046,-4.3053,-4.3083,-4.3093,-4.2968,-4.2968,-4.2968,0,-4.2179,-4.227,-4.2307,-4.237,-4.2411,-4.2433,-4.2497,-4.2538,-4.262,-4.2648,-4.2638,-4.277,-4.2813,-4.2908,-4.2928,-4.2955,-4.2975,-4.2953,-4.3042,-4.3049,-4.3057,-4.3086,-4.3097,-4.2969,-4.2969,-4.2969,-4.2969,0,-4.2277,-4.2341,-4.2382,-4.2464,-4.251,-4.2572,-4.2619,-4.2661,-4.268,-4.2715,-4.2797,-4.285,-4.2922,-4.2946,-4.2963,-4.3044,-4.3037,-4.3034,-4.3015,-4.3067,-4.3095,-4.3106,-4.2971,-4.297,-4.297,-4.297,0,0,-4.2322,-4.2428,-4.2442,-4.2482,-4.2561,-4.261,-4.2676,-4.2748,-4.2784,-4.2841,-4.2898,-4.2986,-4.2986,-4.3027,-4.305,-4.3092,-4.3154,-4.3084,-4.3086,-4.3097,-4.3249,-4.3252,-4.3264,-4.316,-4.3162,-4.3164,-4.3245,0,-4.2387,-4.2505,-4.2542,-4.2641,-4.2702,-4.2727,-4.2784,-4.2839,-4.2874,-4.2931,-4.297,-4.3033,-4.3026,-4.3052,-4.3095,-4.3137,-4.3185,-4.3132,-4.3214,-4.3216,-4.3198,-4.3278,-4.328,-4.3354,-4.3256,-4.3258,-4.3259,0,-4.2478,-4.254,-4.2646,-4.2722,-4.2748,-4.2799,-4.2871,-4.2925,-4.2989,-4.3012,-4.3061,-4.3082,-4.3152,-4.313,-4.3228,-4.3192,-4.3228,-4.3254,-4.3258,-4.3267,-4.3241,-4.3291,-4.3378,-4.3389,-4.3276,-4.3275,-4.3273,0,-4.2503,-4.2613,-4.2692,-4.2725,-4.2814,-4.285,-4.2888,-4.2951,-4.2994,-4.3056,-4.3085,-4.3154,-4.3191,-4.3245,-4.3284,-4.3264,-4.338,-4.3361,-4.3402,-4.3401,-4.3425,-4.3423,-4.352,-4.3447,-4.3447,-4.3446,-4.3446,0,-4.2572,-4.2636,-4.2705,-4.2753,-4.2827,-4.287,-4.2942,-4.2982,-4.3038,-4.3096,-4.312,-4.3173,-4.3222,-4.3282,-4.3313,-4.3392,-4.3408,-4.3429,-4.3437,-4.3428,-4.3425,-4.3452,-4.3448,-4.3449,-4.3449,-4.3448,-4.3448,0,-4.2612,-4.266,-4.2748,-4.2827,-4.2849,-4.29,-4.2968,-4.3017,-4.3055,-4.3127,-4.3147,-4.3207,-4.3279,-4.3324,-4.3415,-4.3436,-4.3523,-4.3528,-4.3502,-4.3506,-4.3546,-4.3542,-4.3664,-4.3683,-4.3595,-4.3596,-4.3597,0,-4.2653,-4.2703,-4.279,-4.2831,-4.2871,-4.2936,-4.2982,-4.3027,-4.3073,-4.3153,-4.3192,-4.3267,-4.3329,-4.3443,-4.3494,-4.3565,-4.3573,-4.3611,-4.3583,-4.3574,-4.3576,-4.3573,-4.3579,-4.3615,-4.3616,-4.3616,-4.3617,0,-4.2721,-4.2745,-4.2809,-4.2884,-4.2938,-4.2998,-4.3058,-4.309,-4.3146,-4.3197,-4.3273,-4.3321,-4.3417,-4.3491,-4.3567,-4.3607,-4.3622,-4.3626,-4.364,-4.3631,-4.3614,-4.3626,-4.3516,-4.3622,-4.3622,-4.3621,-4.3621,-4.3621,-4.2764,-4.2812,-4.2882,-4.2954,-4.3006,-4.3062,-4.3114,-4.316,-4.3225,-4.3308,-4.3331,-4.3411,-4.3477,-4.3581,-4.3623,-4.3686,-4.3681,-4.37,-4.3705,-4.371,-4.3712,-4.3604,-4.37,-4.37,-4.37,-4.37,-4.37,0,-4.2836,-4.2884,-4.295,-4.3036,-4.3093,-4.3106,-4.3174,-4.3221,-4.3292,-4.3354,-4.3416,-4.3505,-4.3578,-4.3637,-4.3713,-4.3753,-4.3762,-4.3771,-4.3769,-4.3779,-4.3711,-4.3692,-4.3763,-4.3763,-4.3763,-4.3763,-4.3763,-4.3763,-4.288,-4.2963,-4.2995,-4.3105,-4.3152,-4.3232,-4.3271,-4.3324,-4.3374,-4.3473,-4.3536,-4.3575,-4.3636,-4.3717,-4.3786,-4.3802,-4.3829,-4.3837,-4.3854,-4.379,-4.3783,-4.3776,-4.3759,-4.3842,-4.3842,-4.3917,-4.3917,-4.3918]}]]